Theta_e
285 286 285 285 284 283 283 283 282 282 281 280 280 280 279 279 279 279 279 279 279 279 279 279 278 279 278 278 277 277 277 276 276 276 276 276 276 276 276 276 275 274 274 274 274 274 274 273 273 273 273 272 273 273 273 273 273 273 273 273 272 272 272 271 269 269 271 273 272 272 272 272 271 272 272 272 272 273 275 274 274 274 274 274 274
286 286 285 284 284 283 283 282 282 281 280 279 279 279 279 279 279 278 279 279 279 279 279 279 278 278 278 277 277 277 277 277 276 276 276 276 275 275 275 275 274 274 273 273 273 273 273 272 272 272 272 272 272 272 272 272 272 272 272 272 271 271 272 270 270 269 268 270 271 271 271 272 270 272 272 272 272 273 273 273 274 274 274 274 274
286 286 284 284 283 283 282 282 281 280 280 279 279 278 278 278 278 278 279 278 278 278 278 278 278 278 278 278 278 277 277 276 275 275 276 276 276 275 275 274 274 273 273 272 272 272 272 272 272 271 272 271 271 271 272 272 272 272 271 272 271 271 271 271 269 267 267 267 270 269 270 271 271 271 272 272 273 273 272 273 274 274 275 275 274
286 285 284 284 283 282 282 281 280 279 279 279 278 278 278 278 278 278 278 278 278 277 277 277 278 278 278 277 277 277 277 276 275 276 276 276 276 275 275 274 274 273 273 272 272 272 272 272 271 271 271 270 270 270 270 270 271 271 270 271 271 270 271 271 271 269 267 267 267 269 270 270 271 272 273 273 272 272 273 273 273 273 274 275 274
285 285 284 283 283 282 281 281 280 279 279 278 278 278 278 277 278 277 277 277 278 277 278 278 278 278 278 277 277 277 276 276 276 276 276 276 276 276 275 274 274 273 273 273 274 272 272 272 272 271 271 270 270 270 270 269 270 270 270 270 270 270 270 271 270 270 268 267 268 269 271 270 272 272 272 272 273 273 273 272 273 273 273 274 275
286 284 284 283 282 282 281 280 280 279 279 278 278 278 277 277 278 278 278 278 278 278 278 277 278 278 278 278 277 277 276 276 276 276 276 276 275 275 275 274 274 273 273 272 273 272 273 272 271 271 271 271 270 270 270 270 269 269 269 269 269 269 269 269 270 269 269 268 268 267 268 269 270 271 273 272 272 271 272 272 272 272 273 273 274
285 285 284 283 283 282 281 280 280 279 279 278 278 278 278 278 279 279 279 279 278 278 278 278 278 278 278 277 277 277 276 276 276 276 276 275 275 275 275 275 274 273 273 272 273 273 273 272 271 271 271 271 271 271 270 270 270 269 269 269 269 269 268 268 268 268 268 268 267 268 268 270 271 270 272 273 272 272 270 270 270 272 273 273 272
285 285 284 283 283 282 282 281 280 279 279 279 279 279 279 279 279 279 279 279 278 278 278 278 278 277 277 277 277 276 276 276 275 275 275 275 275 274 275 275 274 273 273 273 273 273 273 272 271 272 272 272 271 271 271 270 270 269 269 269 269 269 268 268 268 268 267 267 267 267 268 269 270 272 273 271 269 269 271 270 269 270 271 272 272
285 285 284 283 283 283 282 281 281 280 280 279 279 279 279 279 279 279 279 279 279 279 278 278 277 277 277 276 276 276 276 276 276 275 275 275 275 275 275 275 274 274 274 273 273 273 272 271 272 271 272 274 276 275 274 274 270 269 269 269 269 268 267 266 266 266 265 265 266 268 268 269 270 271 270 269 268 269 270 271 270 271 271 270 271
284 284 284 284 284 283 282 282 281 281 280 280 279 279 279 279 279 279 279 279 279 278 278 278 277 277 276 276 276 275 275 275 277 279 278 275 275 275 275 275 275 274 274 273 273 273 272 272 272 275 275 276 277 278 278 278 276 272 270 270 269 268 266 264 262 264 265 264 265 266 267 268 270 272 271 270 271 271 270 271 270 271 270 269 269
284 284 284 284 284 283 282 282 281 281 280 280 280 279 279 279 279 279 279 279 278 278 277 277 277 277 276 276 275 275 275 275 278 280 281 280 276 275 275 275 275 275 274 274 273 273 273 273 272 274 276 276 276 279 279 279 279 278 277 276 274 269 266 265 265 265 264 264 266 267 268 269 272 273 272 271 270 270 270 271 272 271 269 266 265
284 284 284 284 284 283 282 282 281 281 281 280 280 280 279 279 279 279 278 278 278 278 277 277 277 277 276 276 275 275 275 278 280 281 282 282 280 276 275 275 275 275 274 274 274 273 273 272 272 272 272 274 274 275 278 280 280 280 280 279 278 278 276 270 266 264 263 265 266 268 270 271 272 273 272 270 269 270 272 272 271 270 268 267 266
283 284 284 283 283 283 282 282 281 281 281 280 280 279 279 278 278 278 278 278 278 277 277 277 277 276 276 276 275 275 275 279 281 282 283 283 283 278 275 275 275 275 275 274 274 273 273 272 272 272 272 275 275 274 273 275 279 281 281 281 280 280 280 279 277 271 269 268 268 270 273 273 272 273 272 271 272 271 272 271 271 270 269 267 267
283 283 283 283 283 283 282 282 282 281 281 281 280 279 279 278 278 278 278 278 277 277 277 277 277 276 276 276 275 275 275 278 281 282 283 284 284 282 275 276 275 275 275 274 274 274 273 272 272 271 272 272 273 273 273 272 272 273 275 276 275 277 280 281 281 279 276 273 273 272 275 276 273 273 272 274 272 271 271 270 270 269 268 267 268
283 283 282 283 282 282 282 282 281 281 281 280 279 279 278 278 278 278 278 278 277 277 277 276 276 276 276 276 275 275 275 279 281 283 284 284 285 284 277 275 275 275 275 274 274 274 273 273 272 272 272 271 272 273 272 271 270 270 270 269 270 270 271 272 274 275 276 277 276 276 275 275 274 274 274 274 274 274 272 270 270 269 268 268 266
282 282 282 282 281 282 282 282 281 281 281 280 279 279 278 278 278 278 278 278 277 277 277 277 277 276 276 276 275 275 276 280 281 282 284 285 286 283 279 275 275 274 274 274 274 274 273 273 272 272 271 271 273 277 276 271 269 267 267 268 268 268 269 272 275 276 274 274 274 274 273 274 277 275 275 274 274 274 272 270 267 263 261 261 260
281 281 281 281 280 281 281 281 281 280 280 279 279 278 278 278 278 278 277 277 277 277 276 277 277 277 276 276 275 276 276 279 281 282 283 285 285 283 280 276 275 274 273 274 273 273 273 272 272 272 271 270 274 277 279 277 268 267 266 266 266 266 267 269 275 278 279 279 280 280 280 280 280 280 280 280 277 274 267 264 262 259 258 259 261
281 281 282 282 281 280 280 281 281 281 280 279 279 279 279 279 278 278 277 277 277 277 277 277 277 277 277 276 276 276 276 278 281 282 283 284 284 282 281 277 276 274 273 273 272 272 272 274 273 272 271 271 275 277 279 278 270 268 267 266 265 265 266 269 270 272 277 279 280 281 281 281 281 281 279 277 276 275 266 264 261 259 259 258 259
281 281 281 281 281 281 281 281 281 280 279 280 279 279 278 278 278 278 278 278 278 278 277 277 277 277 276 277 278 276 276 277 280 281 283 283 284 283 281 277 276 275 274 273 273 272 271 273 275 274 273 273 276 278 279 279 274 271 268 267 266 266 268 269 269 269 271 272 274 276 277 279 277 271 270 274 274 272 269 266 260 259 260 259 258
280 281 281 281 280 280 281 281 280 280 280 280 279 279 279 279 278 278 278 278 278 278 277 277 277 277 276 276 276 276 276 275 276 281 282 283 284 282 280 277 276 276 276 275 274 273 273 272 274 278 279 279 278 278 279 280 276 274 272 269 268 268 270 270 271 271 271 272 272 273 273 274 271 269 268 268 268 268 267 266 264 262 260 259 259
281 281 282 282 281 281 281 281 281 281 281 280 280 280 280 279 279 278 278 278 277 277 276 276 276 276 276 275 275 275 275 274 275 279 281 282 283 283 281 278 278 277 276 276 275 274 274 273 272 275 279 280 280 280 280 280 280 276 273 271 271 272 273 270 272 275 271 271 272 272 273 271 269 269 269 268 267 266 267 268 266 266 263 260 258
282 281 281 281 281 281 281 282 282 282 281 281 280 279 280 280 279 278 278 277 276 276 276 275 275 275 275 274 273 273 274 275 273 277 280 281 282 283 281 280 280 278 277 275 275 274 274 274 272 274 277 278 280 281 281 281 281 279 276 278 278 278 275 272 270 272 272 271 271 270 269 267 266 265 265 266 266 265 265 264 266 266 266 264 261
283 282 282 282 282 282 282 282 282 282 281 281 280 280 279 278 278 277 277 276 275 275 275 274 274 273 273 273 273 272 272 272 276 274 277 280 281 282 283 282 283 280 277 275 275 275 274 273 273 275 276 277 279 280 281 282 282 280 282 281 281 280 279 275 273 271 271 271 270 269 268 266 265 265 265 265 265 264 264 264 264 265 265 265 266
283 283 282 282 282 282 282 281 282 281 281 281 280 279 278 277 277 276 276 275 274 274 274 273 273 273 273 273 273 272 271 270 273 276 275 278 280 281 282 282 283 281 278 276 277 276 275 273 272 276 277 278 278 279 280 280 280 282 283 283 282 281 278 276 274 272 270 269 268 267 267 266 266 266 265 266 264 263 264 264 264 265 265 265 265
282 282 282 281 281 281 281 280 280 280 280 280 279 279 277 276 275 275 274 274 274 274 273 273 272 272 272 272 273 273 271 270 269 272 276 277 278 279 280 281 282 282 280 279 278 277 278 279 279 278 278 278 279 279 280 280 281 281 282 282 281 280 278 277 273 270 268 268 267 268 267 266 267 267 267 264 264 264 263 263 263 262 261 261 261
281 281 281 280 280 280 280 279 279 279 279 279 279 279 277 275 275 274 273 273 272 272 271 270 271 271 271 271 272 272 271 269 268 268 271 274 276 278 279 280 280 280 280 280 281 282 282 282 282 281 280 279 277 276 276 275 278 280 280 280 279 278 278 275 271 269 269 269 268 267 267 267 266 266 265 264 262 261 261 259 259 259 257 257 256
279 279 279 278 277 278 278 277 276 275 274 274 274 274 274 274 274 273 272 271 271 271 271 271 271 271 271 271 272 271 270 269 268 266 266 267 268 270 273 274 277 278 277 277 278 277 278 279 279 281 280 280 279 279 278 278 277 276 276 276 276 277 276 274 272 271 270 270 268 268 267 266 264 263 262 262 261 261 262 260 259 258 258 258 257
275 274 273 273 273 273 274 272 273 272 271 273 273 272 271 272 273 273 272 272 272 271 271 271 271 271 271 271 270 269 270 268 267 267 266 265 265 266 266 267 268 269 270 272 273 274 274 276 276 276 277 277 278 277 277 276 275 274 274 274 274 273 273 275 274 271 271 270 269 266 263 262 261 262 261 260 260 260 261 259 258 258 258 258 257
271 271 271 272 271 271 271 271 272 273 271 271 269 271 273 272 273 272 271 272 273 273 271 271 271 270 270 270 268 269 269 268 269 273 270 272 268 265 264 265 266 266 270 273 271 270 270 270 270 271 272 273 274 275 275 274 274 274 273 273 272 270 269 269 269 269 268 266 266 264 264 262 262 261 259 259 259 259 260 258 258 257 258 258 257
269 269 270 270 269 269 269 268 268 269 270 269 270 268 272 277 274 272 269 274 277 278 277 271 268 267 269 269 269 270 270 267 276 277 278 278 278 277 275 274 273 270 272 275 274 270 269 268 269 270 270 271 272 273 273 273 272 272 273 273 272 270 269 269 269 269 267 266 266 264 263 262 261 260 259 259 259 259 259 260 258 259 258 258 257
270 268 269 268 268 268 266 266 265 266 265 266 265 267 266 267 277 278 278 277 277 278 279 280 280 278 272 268 269 277 277 278 279 279 279 280 280 280 280 280 279 278 278 275 273 272 270 269 269 269 270 271 271 272 273 273 272 272 271 270 271 270 270 269 269 268 266 265 264 264 263 262 261 261 259 260 259 259 258 259 259 258 257 257 257
270 267 267 265 268 266 265 265 265 265 262 262 262 263 264 265 265 273 277 277 278 279 279 279 280 280 280 279 275 271 276 279 279 280 280 280 280 280 280 280 280 281 280 280 275 273 272 271 270 270 270 270 271 272 272 272 273 272 270 268 268 268 268 268 269 267 266 264 263 262 262 261 261 261 260 260 259 259 258 258 258 257 257 256 256
267 265 265 265 265 266 264 265 264 264 263 263 261 263 263 263 264 264 264 272 274 275 276 277 277 277 277 277 278 278 278 279 280 280 280 280 280 280 280 281 281 281 281 278 276 275 275 273 272 272 272 271 271 271 272 272 272 271 270 269 269 269 268 269 269 266 265 264 264 263 262 261 261 260 259 259 259 258 258 257 258 257 257 256 256
265 265 264 265 265 264 264 264 264 262 261 262 261 261 260 261 260 260 261 262 263 267 272 273 273 273 273 274 274 275 276 276 277 278 278 278 279 279 279 279 280 281 280 276 275 274 274 274 273 272 272 272 272 272 271 271 271 271 270 270 269 269 269 267 266 266 265 265 264 263 262 261 261 259 259 258 258 258 257 257 257 257 256 256 256
264 264 264 264 263 263 263 263 262 261 261 262 261 260 261 260 261 259 259 260 261 260 259 261 266 270 269 270 273 274 274 274 275 276 276 277 277 278 278 275 274 275 276 276 275 275 274 274 273 273 272 272 272 272 271 271 271 270 270 270 270 269 269 267 266 266 265 264 263 263 262 261 261 260 260 259 257 256 256 257 257 257 256 256 256
263 263 262 262 262 262 261 262 261 261 261 260 258 259 259 260 261 258 259 258 256 256 256 257 258 263 269 270 270 271 272 272 273 273 274 274 275 275 270 270 269 270 271 272 272 271 272 271 269 269 269 269 270 270 270 270 270 270 270 269 269 269 268 267 265 264 264 264 263 262 262 261 261 260 259 259 258 257 257 257 257 257 257 256 256
262 261 261 260 259 260 259 258 259 261 263 260 260 258 258 258 258 256 255 254 256 255 255 253 256 259 263 262 265 268 271 271 271 271 271 271 271 268 267 267 266 267 267 266 266 266 266 266 266 265 266 265 265 266 266 266 266 266 267 267 267 267 266 265 265 264 263 262 262 261 261 261 260 260 259 258 258 257 257 257 257 257 257 257 257
259 259 257 256 257 258 258 259 260 262 258 258 257 258 257 256 256 256 255 254 256 255 253 254 259 254 255 258 263 262 263 268 268 266 265 265 263 260 260 261 263 263 264 264 264 264 264 264 264 264 264 264 264 264 264 264 264 264 264 264 264 264 266 266 265 264 263 262 262 261 260 260 260 259 259 258 258 257 257 256 256 255 256 257 257
262 265 266 265 263 259 257 257 258 257 256 257 257 257 257 255 254 253 251 250 251 251 253 251 252 254 254 255 257 262 263 259 258 256 257 257 257 257 256 258 259 261 262 262 262 262 262 262 262 262 263 263 263 263 263 263 263 263 263 262 262 262 262 262 262 262 262 261 261 260 260 259 259 259 258 257 257 257 256 256 256 255 254 254 255
259 260 262 263 262 262 258 257 256 255 255 254 254 254 254 254 253 253 251 251 252 252 251 253 253 252 254 256 260 262 261 260 258 257 256 256 255 255 256 256 257 257 257 257 258 259 259 260 260 260 260 261 261 261 261 261 261 262 262 261 261 261 261 261 260 260 260 260 260 259 259 258 258 258 257 257 256 256 256 255 255 255 255 255 255
259 259 260 261 260 258 257 256 255 253 253 253 252 253 253 254 253 253 251 252 253 252 252 251 250 251 256 264 267 264 258 256 255 255 255 254 253 252 252 252 253 253 254 254 254 255 255 256 256 257 258 258 258 258 259 259 259 259 258 258 258 258 258 257 257 257 258 257 258 258 257 257 257 256 255 255 257 257 255 255 255 255 255 255 255
256 256 256 255 257 256 255 255 254 256 254 255 253 253 253 253 252 252 253 253 254 253 252 251 250 250 258 264 264 264 255 251 253 252 252 252 251 250 252 250 249 250 250 249 249 251 251 251 252 252 253 254 254 254 254 253 254 254 255 255 256 255 254 254 253 253 253 254 254 254 255 256 256 256 257 258 255 255 255 254 254 253 253 254 254
256 255 254 255 255 254 254 252 252 252 252 253 252 256 254 252 252 253 253 253 253 253 251 250 249 250 253 260 259 259 249 246 253 250 250 250 249 250 248 246 246 246 246 246 245 245 246 245 246 247 248 250 249 249 249 249 250 251 252 253 253 253 252 251 251 251 250 251 252 252 252 252 255 254 254 254 254 254 254 254 253 253 253 253 253
254 254 254 254 253 253 252 251 253 252 252 254 254 253 252 251 251 250 250 250 250 250 250 250 250 249 249 251 252 249 246 247 245 245 248 249 248 247 246 245 245 245 246 245 245 244 244 244 245 246 245 246 246 245 246 246 246 247 248 250 252 253 252 251 251 250 250 250 251 250 250 251 253 253 253 254 252 252 252 252 252 252 252 252 252
252 253 252 253 251 252 251 251 251 251 253 252 250 250 252 249 249 249 249 248 251 250 249 249 250 249 249 246 245 247 246 244 248 248 246 245 245 246 245 244 243 245 245 245 245 243 243 243 244 245 245 247 246 246 246 246 246 246 246 247 248 250 251 250 249 250 250 249 250 250 250 251 251 251 251 252 252 251 252 252 252 253 253 253 252
252 252 252 252 251 251 250 248 250 248 248 247 246 246 246 245 245 249 250 249 250 249 248 248 247 248 248 246 246 248 245 244 244 245 247 246 245 246 244 244 244 243 244 245 245 243 244 244 244 245 246 246 247 245 244 244 246 247 245 245 247 249 250 250 247 247 249 248 250 249 250 250 250 251 252 251 251 252 251 251 250 252 252 252 252
250 251 251 251 250 250 250 249 247 247 246 247 247 247 247 247 247 249 250 250 249 250 248 246 245 245 245 244 245 245 245 246 245 245 244 246 244 245 244 242 244 245 244 245 243 245 244 245 244 243 245 245 245 246 246 244 243 245 245 246 247 248 247 248 248 247 248 248 248 247 249 250 251 250 253 253 252 252 252 252 252 251 251 252 251
249 249 249 249 248 248 246 246 249 251 247 248 248 248 249 248 247 248 247 247 246 246 246 244 243 242 244 245 245 245 245 245 245 246 245 246 244 244 243 242 244 245 244 245 244 244 244 244 244 243 244 245 246 246 246 246 244 245 245 245 245 246 248 250 247 247 245 246 246 247 248 249 250 250 251 252 252 252 251 251 251 250 251 251 251
248 248 248 248 248 248 247 248 249 246 246 247 247 247 247 246 247 245 245 245 245 246 244 244 244 244 243 244 245 245 245 246 245 244 245 245 244 243 244 243 245 245 243 245 246 245 243 244 245 245 245 244 245 246 246 246 246 245 245 244 248 252 253 253 252 248 250 249 247 247 246 248 249 250 251 251 252 252 252 251 249 250 250 251 251
247 248 248 248 248 247 246 246 245 243 246 246 246 246 246 246 245 245 245 245 244 245 244 244 245 245 244 245 246 246 245 246 246 246 246 246 245 245 245 245 245 243 244 243 245 246 244 243 244 244 244 244 245 245 244 245 246 247 245 247 252 253 254 254 254 254 253 248 248 246 247 247 247 249 249 250 250 250 250 250 250 250 250 250 250
249 248 247 247 246 246 244 242 243 244 244 244 244 244 245 244 244 244 244 244 244 245 246 245 244 244 244 245 245 246 246 245 247 246 246 247 246 245 246 245 246 244 244 245 246 246 245 245 244 246 244 246 246 246 245 246 245 246 249 252 253 254 255 255 253 253 254 253 247 247 248 248 247 248 249 249 249 249 250 250 250 249 249 249 249
Wind_Speed
10 10 10 10 10 11 10 9 9 7 8 8 9 8 7 7 8 8 7 7 8 8 7 7 7 7 7 6 7 7 7 7 5 6 6 7 6 8 8 9 10 7 7 6 4 4 4 5 4 3 3 4 4 4 4 5 5 5 5 5 5 4 5 4 5 7 5 2 3 2 2 2 3 2 5 5 5 5 5 5 7 6 7 6 7
10 10 9 9 11 10 10 9 10 9 9 8 9 8 7 8 7 8 8 7 7 8 7 6 5 6 6 6 6 6 6 6 6 6 7 8 7 6 8 9 8 7 6 6 5 4 4 5 4 4 3 4 4 4 5 5 5 5 5 6 6 5 4 6 5 3 7 1 4 2 1 2 5 3 4 7 6 5 5 5 5 5 6 7 7
10 9 10 10 10 10 10 10 9 10 11 9 9 8 7 6 6 9 8 7 6 6 6 6 5 5 5 5 5 5 5 5 4 5 6 8 8 7 7 8 9 9 8 7 6 5 5 5 5 5 3 4 4 4 4 5 5 6 5 5 5 5 4 4 4 5 5 5 2 2 2 2 4 5 6 5 6 6 6 6 5 5 5 6 7
10 9 9 10 10 10 11 9 11 10 11 9 9 7 7 6 6 7 7 7 8 5 5 5 5 5 5 5 5 5 5 4 4 4 6 6 7 8 8 7 7 7 8 8 8 7 8 7 6 6 5 5 4 4 3 4 5 5 5 5 5 5 4 4 4 5 2 4 3 2 3 4 4 5 6 5 5 5 5 6 4 5 5 5 6
11 10 10 11 10 11 11 10 11 11 10 9 10 8 8 7 6 7 8 7 7 7 6 5 6 6 7 7 7 6 6 5 6 5 4 3 5 7 7 7 7 7 7 8 8 8 8 9 8 8 7 6 4 5 5 6 5 5 6 5 5 5 4 4 4 3 3 6 5 3 4 4 5 5 5 5 6 5 4 5 5 5 5 4 5
11 12 11 12 11 12 12 11 12 12 11 10 10 9 8 8 8 7 8 9 8 7 8 7 7 8 7 7 6 6 6 5 6 5 4 4 4 4 5 6 6 6 5 6 7 7 8 8 8 8 8 8 8 6 6 7 6 6 6 5 5 4 4 3 3 4 4 5 5 6 3 4 5 3 3 3 7 10 8 3 3 4 5 6 4
11 12 12 12 12 12 12 12 10 10 10 9 8 9 9 9 9 9 8 9 9 9 8 8 7 7 7 6 7 7 6 5 5 4 4 4 5 6 6 6 5 5 5 6 6 7 7 7 8 9 9 8 8 8 8 7 7 7 7 6 5 5 5 4 4 4 5 5 5 6 6 5 5 6 2 2 3 4 7 11 10 2 3 6 11
11 12 12 12 12 13 12 10 10 10 9 8 9 9 9 9 9 8 8 9 10 10 10 10 7 6 6 6 5 5 5 5 5 5 5 5 5 6 6 7 7 5 6 6 7 7 7 7 7 8 9 8 8 7 8 8 6 6 6 5 6 5 5 4 4 4 5 5 6 6 5 6 5 4 2 3 3 2 2 5 10 12 10 5 5
12 12 12 13 13 11 9 9 8 9 10 9 10 10 9 9 8 8 8 8 8 8 8 8 8 7 5 6 6 5 6 6 6 6 6 6 6 7 7 7 8 8 7 7 6 7 6 7 6 7 7 9 11 9 9 9 7 7 6 6 6 6 4 4 4 4 4 4 6 5 6 6 5 5 4 3 3 6 5 4 7 7 8 10 9
11 12 13 12 10 10 10 9 10 10 10 11 10 10 9 9 9 9 9 8 8 8 8 7 7 8 7 6 6 6 6 5 6 10 8 6 7 6 6 7 7 9 9 7 7 8 8 7 6 9 11 11 12 14 14 14 13 9 8 8 7 7 6 5 5 5 5 6 7 5 6 6 5 4 5 3 3 3 5 5 7 7 8 9 7
10 10 11 9 9 10 10 10 10 10 10 10 8 10 10 9 9 9 8 9 9 8 8 9 8 8 8 8 8 7 6 5 9 11 12 13 7 7 7 7 7 8 7 8 9 10 9 7 6 7 9 10 10 16 15 16 15 15 14 13 11 10 8 7 7 6 6 7 5 5 6 7 5 4 4 4 2 2 4 6 7 8 7 9 12
10 9 8 8 9 10 10 11 11 11 10 10 10 9 9 9 9 9 9 9 8 8 9 9 8 8 8 7 7 7 6 7 11 12 13 14 12 7 6 6 6 7 9 9 8 7 8 7 7 6 7 8 7 8 12 16 16 16 16 15 16 16 14 11 8 6 6 6 7 7 6 7 7 6 4 2 3 4 6 7 6 7 8 7 7
8 8 7 8 9 9 10 11 11 10 10 10 9 10 10 10 9 9 10 8 7 9 10 9 9 8 7 8 7 6 6 10 13 14 14 15 16 11 5 6 7 8 10 10 9 8 7 7 7 7 7 11 8 7 7 8 12 16 17 17 17 18 17 18 15 10 7 8 7 8 8 7 7 5 2 2 4 7 7 5 4 5 6 8 8
8 8 7 8 9 9 9 8 9 8 8 8 8 9 9 10 8 6 6 6 8 8 7 8 7 8 8 7 7 6 7 9 13 15 15 16 17 14 7 8 8 8 10 11 9 10 10 9 8 8 7 8 8 8 8 8 7 6 8 8 7 12 17 19 20 20 15 10 9 10 7 6 5 3 2 4 7 7 5 4 3 5 6 8 9
9 9 9 8 8 8 9 10 10 10 10 9 9 9 9 8 8 8 8 8 9 10 9 8 7 7 6 6 6 6 6 11 14 16 16 17 17 15 7 6 6 7 9 10 10 11 10 9 9 9 8 8 8 9 9 9 7 7 7 8 6 6 6 6 7 7 8 9 10 9 6 5 5 4 5 6 8 7 3 4 4 5 5 6 7
9 8 9 8 9 9 10 9 9 8 8 8 8 8 8 9 10 7 6 5 3 4 4 5 7 7 6 6 5 7 8 13 15 16 17 17 19 10 7 8 9 8 8 10 11 9 7 9 9 9 9 9 11 17 13 8 7 8 10 9 8 7 8 8 12 11 10 8 7 7 5 5 8 7 8 7 5 3 2 1 2 2 4 6 8
10 9 9 9 9 10 10 10 10 9 9 10 9 9 9 8 7 7 8 7 6 6 6 6 6 7 7 7 8 9 8 11 16 17 17 19 14 9 8 8 8 9 10 9 8 8 8 8 10 8 9 10 12 16 17 14 8 10 10 10 9 7 10 8 14 19 20 21 20 19 18 18 17 16 15 11 5 3 4 1 4 0 2 7 8
8 9 9 9 9 8 8 8 9 8 9 10 10 7 5 4 6 6 8 7 7 6 6 5 4 6 7 8 10 10 10 10 16 17 18 19 15 10 8 8 9 9 8 8 7 7 8 12 11 10 10 11 13 17 17 14 9 10 10 10 10 10 11 8 7 10 18 21 22 21 21 19 20 18 10 6 7 8 1 5 2 1 6 4 7
8 9 8 7 7 8 8 8 9 9 9 8 8 8 8 7 6 5 5 5 6 5 5 5 5 5 7 8 7 10 9 8 14 17 18 19 15 9 9 8 9 9 8 10 8 7 8 10 17 15 13 11 15 16 19 16 10 10 11 9 11 12 14 8 9 8 8 8 10 11 12 15 9 3 2 4 4 1 1 4 3 4 7 6 6
5 5 6 7 7 7 7 8 8 9 9 8 7 8 6 7 7 7 6 5 5 5 5 6 8 7 7 8 8 9 10 9 9 16 17 18 19 11 7 8 11 12 10 9 9 9 9 9 12 20 22 20 17 18 19 21 13 10 8 11 11 16 10 8 10 9 9 10 10 9 9 6 5 4 4 3 1 3 4 4 5 6 7 6 5
7 7 8 8 8 9 8 9 10 8 8 9 8 7 7 7 7 7 7 5 5 5 6 6 7 8 7 7 8 8 8 9 8 14 16 16 18 17 9 11 11 9 10 10 10 11 10 10 9 15 21 21 20 20 21 22 21 12 11 12 15 12 5 8 10 15 10 9 9 9 8 6 4 4 5 4 4 4 4 5 6 6 6 6 6
8 8 8 8 8 9 9 8 8 9 8 8 8 7 6 7 7 7 6 6 7 8 7 7 7 7 6 7 8 8 7 9 8 11 16 17 18 21 12 11 9 8 10 10 10 11 12 10 9 10 15 19 19 21 22 22 24 14 14 21 21 19 11 7 7 7 8 8 8 8 7 6 6 5 5 4 5 5 4 5 5 6 6 6 7
8 8 8 8 8 9 8 10 8 7 8 8 9 8 6 7 6 6 7 6 7 8 8 7 7 8 7 7 7 7 7 7 11 9 14 18 19 20 20 14 12 9 10 12 14 12 9 9 8 9 14 16 18 20 21 24 20 17 25 25 25 25 19 10 8 8 8 8 8 9 8 8 8 7 6 6 5 5 4 5 6 5 6 6 7
7 7 7 7 7 7 8 8 7 6 8 7 7 7 6 6 6 6 7 7 7 8 7 7 7 8 9 8 6 6 5 6 8 12 10 16 18 19 20 21 20 11 9 12 12 10 10 9 7 12 15 17 19 20 21 21 16 23 25 27 26 23 13 10 9 9 8 8 9 9 10 8 7 7 7 6 5 5 5 5 5 6 6 6 6
7 7 6 6 6 5 5 6 6 6 6 7 7 7 7 7 7 6 7 7 7 7 6 5 6 7 6 8 7 5 6 6 6 8 14 15 17 18 20 22 21 22 14 12 10 10 12 15 15 16 18 19 22 21 20 22 26 24 25 25 23 13 12 10 8 7 8 10 11 10 9 9 9 7 5 5 4 4 3 3 3 3 3 3 4
6 6 5 5 6 6 7 5 5 6 6 6 7 6 7 7 7 6 6 6 5 6 6 6 6 6 7 7 7 6 4 4 5 5 7 10 12 17 20 20 20 20 19 16 20 19 19 20 22 22 20 19 14 12 11 11 18 23 25 23 12 10 9 7 6 7 10 10 10 11 9 6 7 5 4 4 4 5 4 4 4 5 3 4 3
6 5 5 5 4 5 6 5 4 4 4 3 4 4 5 6 6 6 6 6 6 6 6 6 6 6 8 8 7 5 5 4 4 4 5 5 6 7 8 10 14 16 13 11 12 13 15 16 12 14 14 20 21 19 17 16 14 13 12 10 9 9 7 6 9 11 12 9 7 7 6 5 4 5 4 6 5 4 4 5 4 5 3 3 4
6 5 6 5 5 5 5 7 7 5 4 5 6 4 5 6 7 7 8 8 7 7 6 7 7 7 7 6 5 5 5 3 4 6 6 6 6 6 6 6 7 7 8 9 9 11 10 10 12 10 10 10 10 9 9 8 8 9 9 8 8 8 10 12 9 6 6 5 6 4 3 4 5 6 5 6 6 6 4 5 5 5 4 3 2
7 6 5 6 5 5 6 6 6 6 5 5 4 5 7 6 6 4 2 5 6 6 6 6 6 5 5 6 5 7 5 4 7 7 8 10 9 7 7 8 7 7 10 13 10 9 7 8 8 9 8 9 9 10 8 7 7 7 9 9 8 7 6 5 7 8 6 5 7 7 7 6 5 5 5 5 5 5 4 5 4 5 3 4 6
7 6 5 6 5 6 6 5 5 6 6 6 5 2 2 3 3 4 2 2 7 8 6 6 5 5 6 6 6 8 7 5 6 9 11 12 14 15 13 13 12 10 11 16 12 8 7 7 8 7 7 7 8 9 8 7 8 8 8 9 8 7 8 8 9 8 6 8 7 6 6 6 6 7 6 7 5 5 5 6 4 5 5 6 6
6 6 6 5 4 5 5 5 4 5 4 5 4 4 1 3 4 2 4 5 5 6 8 9 9 8 7 5 6 11 12 11 12 12 13 13 14 15 15 16 17 17 18 11 9 9 7 7 8 7 7 7 8 8 7 8 8 8 7 5 6 8 8 9 9 7 7 7 6 6 5 7 6 7 8 6 7 6 5 5 4 5 6 6 6
7 5 5 4 5 4 5 5 5 6 4 4 5 5 3 2 1 4 3 1 1 3 6 6 8 9 11 9 6 4 9 12 13 13 13 14 14 15 15 16 17 17 16 16 10 9 8 8 8 8 6 7 8 7 7 7 7 6 5 5 6 6 7 9 8 7 7 6 6 6 6 6 7 6 6 6 6 5 5 5 6 7 6 5 6
8 6 5 5 5 5 5 6 4 6 6 5 4 5 6 4 5 2 1 6 4 2 1 2 5 6 5 6 7 7 8 9 11 12 12 13 14 14 15 17 16 17 16 11 8 8 7 6 7 7 7 8 8 7 7 7 7 6 6 7 7 7 8 9 4 5 5 7 6 6 6 6 6 6 6 6 6 6 6 6 6 6 5 6 6
6 7 6 7 7 6 6 5 6 5 4 5 5 6 4 6 4 3 1 1 2 3 5 8 10 9 8 9 9 9 9 10 10 10 11 11 12 13 14 11 15 17 14 8 7 8 7 7 7 7 7 7 7 7 7 7 7 7 6 6 7 6 6 4 5 6 6 7 7 7 6 6 6 6 6 6 5 5 5 6 6 6 6 7 7
6 6 7 6 6 6 5 5 6 5 5 5 6 4 5 4 5 5 4 2 0 0 2 4 6 9 7 6 9 10 9 9 8 8 9 9 10 11 9 5 4 4 5 5 6 6 7 7 7 6 5 6 7 7 7 7 6 6 6 6 6 5 4 5 6 6 6 6 6 6 6 6 6 6 6 6 6 6 7 6 6 7 7 6 6
6 5 4 5 5 4 4 5 4 5 5 5 3 3 3 4 4 3 2 2 2 1 2 2 3 6 7 10 11 10 10 10 9 8 9 10 10 9 3 3 3 4 4 5 5 6 6 6 7 6 7 7 6 6 5 4 4 4 3 4 5 4 3 3 3 4 4 4 4 5 4 5 5 5 5 5 7 7 7 7 7 6 7 6 5
5 5 4 4 4 5 4 4 4 4 4 3 5 4 4 4 5 3 4 3 1 1 0 2 5 5 4 4 6 8 10 8 9 10 12 12 13 8 4 4 3 3 4 4 5 5 5 5 5 5 5 5 5 4 4 5 5 5 5 4 3 3 3 2 3 3 4 5 5 5 5 6 5 6 6 7 6 6 6 6 6 6 6 7 6
5 5 5 4 4 5 5 6 5 6 5 4 5 4 4 3 2 2 4 2 1 1 2 3 3 2 4 5 5 2 4 8 10 10 10 10 9 5 5 4 3 3 3 3 3 3 3 3 4 4 4 4 4 4 4 4 5 4 4 4 3 3 5 4 3 2 2 3 4 4 4 5 4 5 5 6 7 6 6 7 7 6 6 7 6
5 7 8 7 6 5 5 4 6 6 4 4 4 5 5 4 4 4 4 3 3 3 3 2 3 2 3 3 5 3 4 4 6 5 4 4 5 5 5 5 4 4 3 4 4 4 3 3 4 3 4 4 3 4 4 4 4 4 4 4 4 3 3 3 3 3 3 3 4 3 4 4 4 5 5 6 6 6 6 6 6 6 7 7 6
6 4 6 8 6 5 6 6 5 5 6 5 5 4 4 5 4 4 3 4 3 2 2 3 3 3 4 5 3 3 5 4 3 2 2 3 3 3 4 3 4 3 3 3 3 4 4 4 4 4 4 4 4 4 4 4 4 4 4 4 4 4 4 3 3 3 3 3 3 3 4 4 4 4 4 5 5 5 6 6 6 6 6 6 5
5 5 5 6 6 6 6 7 6 5 5 6 4 6 5 4 3 4 3 3 2 2 2 3 2 4 4 5 8 8 4 3 1 1 2 1 1 2 3 3 2 2 2 2 2 3 3 3 3 4 4 4 4 4 4 5 5 4 4 4 4 4 4 3 3 4 4 3 3 3 3 4 3 4 5 5 5 5 5 5 5 5 5 5 5
6 6 6 5 6 6 7 7 6 6 5 6 5 4 5 5 2 3 4 3 4 3 2 2 2 3 7 9 8 9 5 1 1 2 1 1 1 1 1 1 1 1 1 2 2 3 2 3 3 3 4 4 4 4 4 4 4 4 5 5 5 4 4 4 4 3 3 4 3 3 3 3 4 4 5 4 4 5 5 5 5 5 4 5 4
6 6 6 6 6 6 6 4 4 6 5 6 4 4 5 4 4 4 3 4 2 2 1 1 2 2 3 6 6 6 3 2 2 0 1 1 1 1 2 3 3 3 3 3 3 1 2 3 4 4 4 5 4 4 4 5 4 4 4 4 5 5 5 4 3 4 3 3 4 3 3 4 4 3 4 4 4 4 5 5 4 4 5 4 4
6 7 7 7 7 6 5 5 6 5 4 5 4 5 5 4 3 3 3 2 2 1 1 0 0 1 1 4 4 4 1 1 1 1 1 2 2 3 4 4 4 4 4 3 3 2 1 3 4 4 4 4 5 4 4 4 3 4 3 4 4 5 5 4 5 4 3 4 4 4 4 4 4 5 5 5 4 5 5 4 5 5 4 4 4
6 7 6 7 6 6 4 4 4 4 6 6 4 3 4 2 2 1 1 1 2 1 0 0 0 1 3 2 2 1 1 1 2 2 2 2 3 5 5 4 3 5 5 5 3 2 3 3 3 4 4 4 3 4 4 4 3 4 4 4 5 6 6 6 5 4 4 3 5 4 4 4 5 5 5 5 4 4 5 5 5 4 5 5 5
6 6 7 6 6 7 6 5 6 4 4 4 4 3 2 2 1 1 2 1 1 0 0 0 1 1 1 2 1 3 2 2 2 2 4 3 3 5 4 5 5 4 4 5 5 3 4 4 3 4 5 5 5 4 4 4 5 5 4 4 5 6 6 5 3 3 4 3 5 4 4 4 5 5 6 5 5 4 5 5 4 5 5 5 5
5 6 4 6 6 6 5 5 4 4 3 2 2 1 1 1 0 0 1 0 0 1 1 1 1 2 2 2 2 4 3 2 4 3 3 5 4 5 5 4 4 6 5 5 4 5 4 4 4 4 5 5 5 5 5 4 4 5 4 4 5 6 5 5 5 3 5 4 4 3 5 4 5 4 6 5 4 4 4 5 5 5 5 5 5
5 6 5 5 5 6 4 4 3 3 3 2 1 1 1 0 0 0 1 1 1 1 1 1 2 2 3 3 2 2 3 3 3 5 4 5 5 5 4 4 5 5 4 5 5 4 5 4 5 4 5 5 5 5 5 4 4 5 4 4 5 5 6 6 5 5 4 4 4 5 4 5 5 5 4 5 5 4 5 5 4 4 4 5 5
5 6 6 4 4 4 4 2 4 2 1 1 0 0 0 0 0 1 1 1 1 1 2 3 4 3 3 3 4 4 3 5 4 4 5 5 5 4 5 4 4 5 4 5 6 5 4 5 4 5 5 5 5 5 6 5 5 5 4 4 6 10 11 10 6 5 5 5 5 4 3 4 5 4 4 4 5 4 5 4 3 4 3 4 5
5 5 4 4 4 3 3 2 2 2 2 1 1 0 0 1 1 1 1 1 2 3 3 3 5 4 3 4 5 5 3 4 5 5 6 5 5 4 6 5 5 5 5 5 5 5 5 4 5 5 5 5 5 5 5 5 6 6 5 6 10 12 10 11 10 8 5 4 5 4 5 5 4 4 4 4 4 4 4 4 4 5 4 4 5
5 3 3 3 2 2 1 2 1 1 1 1 1 1 1 2 3 2 2 3 5 4 4 4 4 4 4 4 5 4 5 4 5 5 5 5 5 5 5 5 6 4 4 5 6 5 5 5 5 5 4 5 5 6 5 6 5 6 8 11 13 12 12 10 6 7 9 6 4 5 5 5 4 5 4 4 4 4 6 4 4 5 4 4 4
Wind_Direction
180 182 172 181 176 180 175 171 171 165 159 167 172 175 171 169 168 157 142 163 155 158 164 164 161 160 156 157 156 155 151 152 155 151 148 150 156 147 143 137 133 136 137 139 136 140 147 146 155 170 178 169 168 155 140 136 125 126 132 133 137 144 148 162 199 262 290 257 265 262 324 338 310 244 284 285 290 283 284 280 288 291 294 287 288
184 176 178 177 180 178 177 173 168 165 167 170 177 175 170 171 161 146 164 160 159 161 163 159 155 156 156 157 157 153 156 160 163 161 157 154 155 154 143 135 133 138 140 146 147 148 145 152 164 174 200 180 176 165 154 147 146 140 156 153 159 164 173 155 208 220 268 320 317 312 318 261 273 265 283 308 304 297 294 291 284 281 286 290 289
180 176 176 178 181 179 173 174 169 172 171 174 177 170 168 164 161 161 162 157 153 158 156 149 152 152 154 154 154 156 164 167 173 172 168 163 159 155 146 141 144 151 155 159 159 148 155 169 177 175 188 178 190 174 157 157 160 161 167 165 163 171 169 163 148 224 265 282 229 261 238 260 271 287 296 280 286 286 294 303 302 292 282 285 285
177 176 179 181 177 173 180 175 173 175 177 175 171 165 164 164 160 158 154 148 153 146 139 145 145 155 152 156 162 163 166 173 180 191 180 174 165 156 149 147 151 161 161 161 162 166 173 172 186 181 186 181 188 175 178 166 170 177 170 173 165 173 171 167 194 190 229 255 267 187 275 292 271 278 281 283 277 292 298 296 285 281 278 278 280
175 178 178 177 177 181 182 177 179 179 177 169 171 163 163 159 161 160 152 153 150 143 139 142 156 162 170 172 173 174 177 173 180 186 188 189 170 156 154 153 159 165 168 167 167 171 178 187 182 180 183 180 189 185 185 184 188 178 183 179 173 170 163 178 192 203 215 253 277 247 246 260 267 275 281 302 309 304 291 292 298 295 294 281 284
180 175 178 180 181 185 183 181 185 181 174 172 170 163 160 163 164 162 163 156 150 153 151 159 170 174 175 176 172 170 171 175 185 189 177 168 162 155 152 155 162 166 165 169 175 183 187 190 185 182 184 186 193 191 189 194 187 189 185 186 175 166 172 184 183 198 226 249 251 290 265 278 298 277 285 316 330 325 321 290 277 295 311 310 296
180 180 178 182 182 189 186 185 180 177 176 169 159 161 165 166 167 167 164 159 157 158 162 165 176 176 176 169 175 174 172 174 180 179 173 179 174 166 157 158 162 167 173 178 186 192 199 194 190 190 193 196 189 192 190 194 194 198 192 184 174 167 181 188 192 207 223 245 262 254 278 274 273 298 298 354 313 301 314 329 326 283 278 322 325
181 183 181 184 188 189 186 177 176 176 168 161 164 165 165 166 169 162 159 163 166 169 169 175 173 172 173 170 165 161 167 171 178 180 183 185 182 175 167 168 170 175 179 183 176 192 203 205 200 199 200 200 195 196 187 194 190 197 194 173 176 174 189 189 198 210 225 240 251 265 265 283 282 259 281 350 321 299 320 327 310 319 324 334 329
185 186 185 188 190 183 172 172 171 165 166 163 163 166 166 166 165 165 170 169 171 170 165 164 161 165 162 163 163 167 178 187 183 183 181 189 192 184 176 176 156 157 156 170 183 200 211 213 211 209 210 209 206 199 201 192 180 192 194 177 182 182 189 196 201 207 228 233 255 262 267 268 272 293 306 327 324 304 316 300 290 297 315 318 319
185 189 192 189 178 170 169 169 171 168 165 168 170 164 164 167 169 170 176 176 167 161 156 158 165 171 166 167 172 179 191 186 183 189 192 189 192 188 177 178 174 151 174 182 204 209 216 214 217 213 213 213 211 212 209 207 200 191 182 181 182 184 194 194 206 207 212 228 243 245 260 264 264 274 286 278 274 301 303 300 303 313 320 307 293
191 192 193 184 173 164 167 170 167 171 170 167 163 164 168 168 173 176 177 174 167 160 157 164 174 174 176 177 181 188 189 186 188 200 203 203 196 189 184 187 177 173 198 200 211 213 213 220 217 222 219 217 218 221 221 217 215 209 200 194 188 182 184 196 212 197 201 225 228 229 245 265 266 272 278 285 270 286 293 297 304 316 326 335 323
188 191 187 177 172 167 167 166 168 171 170 172 169 167 163 169 177 180 178 172 168 159 165 177 175 178 180 178 185 188 189 186 196 204 207 205 199 193 189 189 187 192 196 207 216 212 215 215 218 215 224 219 213 225 229 227 222 219 215 211 209 207 197 186 193 201 204 213 231 232 235 255 271 267 270 283 288 287 285 290 290 305 310 307 294
181 184 180 175 174 169 168 170 172 172 175 170 168 166 168 173 178 180 185 175 156 167 178 175 184 178 175 182 188 185 194 195 200 206 209 209 204 195 200 198 195 203 199 213 214 214 210 211 218 219 223 222 219 218 225 237 235 227 224 223 222 221 222 220 211 196 191 212 223 236 233 252 254 252 248 254 284 283 285 266 270 282 289 285 283
177 178 172 178 173 171 168 165 167 167 165 166 165 170 169 177 175 172 163 161 173 177 177 181 173 177 182 184 187 193 203 198 205 209 211 213 211 203 205 205 211 212 208 210 213 214 210 206 211 223 215 211 216 215 218 223 227 243 242 235 228 232 233 232 232 223 212 216 223 239 235 221 246 256 235 269 273 274 260 250 268 276 277 272 286
178 174 172 172 167 165 167 170 170 168 168 167 167 168 169 164 168 175 176 183 181 183 180 175 178 177 179 185 191 202 209 206 210 212 214 215 216 212 204 211 221 227 222 211 217 216 210 207 211 221 213 208 212 209 210 213 212 225 233 239 236 227 229 238 235 238 237 229 225 233 224 215 230 229 229 239 251 259 257 261 273 281 288 292 283
175 170 171 169 167 166 166 170 169 166 162 158 163 170 172 175 171 162 160 168 165 146 162 166 176 181 181 178 192 217 221 211 213 215 217 218 218 217 203 209 223 230 233 226 224 223 212 207 208 221 217 214 214 215 213 197 206 216 227 236 238 239 238 228 230 232 231 235 241 239 222 222 231 230 225 230 225 220 250 332 19 2 340 300 285
178 173 170 167 168 169 169 166 164 158 159 159 166 170 168 175 168 155 163 167 170 181 181 189 184 176 180 187 204 224 225 214 215 217 218 220 218 219 209 213 224 229 235 238 240 234 226 216 215 224 223 225 215 214 217 206 201 212 223 231 234 240 247 238 238 238 238 239 239 239 242 242 241 235 245 260 251 200 122 328 281 174 326 300 291
175 169 172 172 166 163 165 163 159 154 158 173 177 174 163 148 157 157 165 167 178 184 185 189 188 188 193 203 211 221 228 213 215 219 219 219 218 219 216 212 227 230 240 240 231 232 230 224 220 228 229 232 214 216 216 210 202 209 213 225 232 238 246 230 230 237 239 239 239 241 244 243 243 249 248 237 273 287 83 278 251 150 262 228 273
171 177 172 158 155 155 155 153 156 164 169 168 161 161 165 167 158 155 166 171 182 166 174 190 207 209 209 216 211 221 234 221 218 222 222 221 220 221 217 214 227 232 231 242 233 225 236 231 229 227 230 233 224 220 217 213 213 206 208 210 228 234 239 208 218 220 224 230 238 238 243 243 243 128 157 242 264 303 164 210 170 188 242 243 252
151 138 141 145 144 146 149 155 159 163 169 162 161 165 156 149 160 167 173 177 179 179 187 202 214 222 211 215 222 223 229 229 220 226 224 224 222 221 216 209 228 232 230 237 243 236 228 231 234 234 234 233 228 225 223 221 219 216 199 211 222 237 228 202 214 209 216 216 225 225 229 214 184 172 141 154 201 187 209 202 197 197 217 232 226
145 150 146 149 154 158 161 165 164 165 161 161 158 156 160 166 162 170 179 182 186 196 200 208 218 226 216 217 219 226 221 228 222 222 228 227 226 224 222 224 229 231 235 238 238 242 240 230 234 232 235 237 235 232 229 229 229 220 215 219 221 232 185 208 214 212 212 215 217 217 219 198 179 194 207 183 196 200 210 219 199 204 206 212 226
147 151 154 156 159 159 161 161 159 159 154 149 157 168 176 172 176 181 179 182 194 204 206 211 220 229 223 220 219 224 214 210 220 220 225 229 230 230 231 235 226 229 242 245 243 243 241 238 240 232 233 238 239 239 237 235 234 232 228 230 237 238 230 212 201 208 216 211 212 211 201 191 194 197 206 208 211 210 205 213 218 215 223 210 207
150 152 152 153 160 162 162 162 158 155 158 163 168 176 171 172 175 175 178 185 196 207 212 212 218 230 231 231 228 225 224 225 223 223 227 231 233 235 238 243 232 219 231 244 245 245 247 245 243 228 229 233 236 239 241 242 240 238 240 241 241 240 240 230 207 206 214 213 207 210 204 202 203 206 201 214 217 183 199 203 210 216 228 229 235
141 145 153 157 156 161 163 164 160 160 165 165 170 168 166 174 175 181 182 186 195 206 215 209 217 229 235 244 236 229 223 217 229 230 230 234 239 241 243 244 244 235 225 241 248 250 251 248 231 226 231 232 233 237 239 242 241 243 244 245 245 243 235 230 214 210 206 209 210 212 215 206 200 205 206 209 202 172 192 203 210 220 225 236 240
148 155 158 158 158 152 147 154 162 165 163 162 167 173 172 167 178 187 180 192 197 206 214 199 216 230 240 245 247 235 215 209 220 227 233 236 239 242 245 247 247 249 250 252 247 248 253 250 240 230 228 230 233 235 239 241 243 245 247 248 247 240 235 227 212 185 203 213 214 217 217 204 203 204 154 142 151 167 182 209 208 232 261 271 263
147 149 144 146 149 146 151 157 163 166 163 172 177 176 170 174 178 171 179 194 196 204 212 200 217 225 240 247 248 244 222 201 213 215 224 237 242 243 245 248 251 252 253 261 264 263 254 253 252 247 240 239 239 238 241 240 243 247 248 249 248 245 240 226 186 202 218 220 215 216 215 194 199 166 136 143 159 193 182 192 207 255 233 249 273
128 126 131 126 124 140 143 146 134 121 132 126 130 138 139 158 163 166 178 186 194 204 209 211 220 225 238 246 251 251 242 229 221 215 218 227 239 249 255 259 261 261 260 262 268 269 273 273 269 261 250 243 240 237 237 241 238 240 243 242 243 244 244 206 209 215 223 222 220 221 210 181 104 129 178 172 190 187 173 182 197 240 218 228 221
117 114 108 109 108 114 120 122 129 131 136 146 143 139 150 158 174 184 185 188 190 210 205 216 220 227 238 247 259 265 258 236 225 223 227 217 230 229 235 244 244 238 250 258 257 263 271 277 275 276 273 265 253 250 247 240 235 233 233 230 229 226 227 235 242 241 237 224 215 183 131 150 180 187 164 181 189 162 176 180 193 226 216 211 234
102 106 113 109 112 112 122 133 140 141 139 139 152 164 169 173 186 207 208 177 193 195 205 222 227 232 233 236 242 267 262 240 240 219 217 212 210 214 227 229 231 233 237 245 258 269 271 269 272 268 259 257 258 253 248 243 239 229 227 229 225 217 209 177 215 225 212 187 213 201 204 174 193 162 176 184 198 195 171 178 204 199 226 201 226
102 103 111 114 123 119 112 116 124 131 142 146 132 64 40 139 165 173 225 206 200 217 200 211 208 202 219 230 203 232 255 234 226 239 237 238 238 231 224 221 219 222 234 246 247 255 256 259 258 259 259 254 257 256 251 244 245 240 237 232 223 209 207 214 219 226 202 213 214 195 194 182 195 170 174 196 193 188 191 186 198 194 197 212 229
90 90 92 95 108 113 113 103 97 101 109 120 117 138 120 355 37 88 174 191 203 219 236 242 239 215 194 232 243 238 246 258 267 273 274 274 272 271 268 259 249 239 236 240 247 244 248 250 258 252 256 257 256 260 257 254 251 250 239 216 219 215 213 218 223 216 212 210 204 200 193 190 203 183 187 201 205 191 175 209 195 200 213 221 229
109 109 104 107 99 102 106 115 112 104 86 86 112 118 121 141 328 24 71 62 272 246 246 254 258 264 262 259 247 223 240 249 260 267 271 274 275 274 273 273 272 269 264 253 247 238 231 241 251 251 244 250 256 260 261 261 261 253 237 216 227 215 218 227 222 209 217 204 205 206 201 202 201 198 202 207 197 200 192 200 198 203 222 220 231
119 121 121 112 107 108 111 114 124 126 133 128 129 136 141 152 168 220 344 10 5 14 44 51 25 6 358 344 324 315 306 295 286 285 282 286 288 285 282 280 277 272 270 264 256 263 254 242 244 251 243 246 251 249 252 252 250 240 224 226 231 223 219 231 214 206 210 214 210 218 204 206 205 205 204 197 195 210 202 207 212 210 215 227 236
121 135 138 139 127 132 132 140 135 140 144 138 143 144 147 152 151 146 113 338 9 15 28 32 24 18 6 359 348 339 334 325 315 310 309 305 305 300 295 292 286 277 266 253 254 262 267 266 258 250 244 242 245 244 245 247 242 240 235 232 235 234 229 193 195 218 213 215 215 219 205 207 199 198 205 201 208 206 201 212 205 214 224 224 236
108 107 117 123 126 134 138 131 133 134 133 138 142 140 151 153 141 146 154 151 146 342 304 331 352 11 359 354 5 13 8 358 346 330 324 317 309 312 336 325 305 321 301 276 260 254 254 257 263 267 257 252 250 247 250 254 253 248 247 249 248 239 223 197 213 217 220 219 220 219 209 210 204 202 201 198 193 204 216 213 218 216 224 227 228
107 111 103 106 108 116 121 125 128 129 133 140 132 132 124 129 123 127 106 109 124 126 322 320 329 320 16 37 23 11 7 5 4 2 1 359 353 0 16 324 351 343 347 351 355 346 352 12 15 14 15 14 7 1 344 332 316 297 286 278 279 280 268 238 225 221 226 226 229 223 210 208 202 200 201 211 208 211 213 213 218 218 219 224 224
103 102 97 89 95 94 92 86 94 96 102 97 103 95 94 93 94 95 97 104 101 99 152 312 341 353 26 17 17 6 8 18 21 28 26 23 28 36 25 14 357 350 11 11 8 5 7 11 18 14 14 17 12 9 7 5 4 2 353 350 331 313 283 248 235 202 217 219 223 210 214 214 202 201 196 216 217 215 220 218 221 211 214 221 220
88 93 98 100 95 94 91 85 77 76 74 80 80 92 86 81 84 87 99 84 91 77 46 13 46 55 22 331 344 353 3 25 37 33 27 28 28 25 18 14 17 17 15 6 4 9 5 355 9 8 4 5 7 1 2 357 359 0 354 345 341 331 312 309 299 279 237 235 232 220 221 227 213 207 207 220 223 214 217 216 218 222 226 222 217
80 84 86 82 79 77 82 82 72 76 71 68 64 80 83 82 71 68 63 72 64 64 64 49 54 40 340 305 321 336 50 37 44 37 25 28 29 27 34 22 30 14 17 13 9 11 3 3 1 2 351 357 352 352 353 345 342 339 341 336 319 320 315 307 293 269 254 239 238 225 221 226 217 214 212 221 232 222 224 216 215 212 218 221 223
76 67 67 72 69 75 73 80 79 76 79 85 68 73 73 70 80 87 87 78 67 68 64 60 38 349 317 313 341 44 46 50 56 48 45 28 30 17 33 38 35 17 17 359 6 6 353 353 352 349 342 339 343 342 340 338 335 326 323 321 317 308 302 294 288 281 263 259 245 236 224 232 226 221 221 223 234 230 227 224 219 216 217 220 223
83 79 79 82 92 88 77 74 74 83 81 80 85 81 86 91 92 89 87 86 87 74 62 70 20 317 312 352 25 56 86 65 45 26 34 41 20 20 32 18 33 15 0 6 351 344 348 345 335 333 329 334 336 336 337 336 329 332 331 324 327 311 311 311 306 300 294 289 278 268 259 253 244 220 238 237 238 239 234 234 232 227 222 218 218
90 86 81 79 82 86 84 75 74 71 74 77 65 71 73 73 78 80 78 76 75 78 79 44 356 335 342 18 16 46 70 38 48 37 0 2 15 343 357 352 346 339 343 320 323 321 319 322 317 312 318 312 322 320 322 319 327 329 323 323 312 311 307 291 287 283 286 280 282 279 276 265 254 236 246 248 233 235 239 232 234 233 229 227 220
91 87 89 78 74 74 84 89 80 74 67 71 69 70 73 77 73 79 81 79 79 81 79 27 338 352 359 10 23 38 65 39 43 11 339 324 311 308 306 293 286 285 269 269 274 251 266 271 278 284 278 283 284 284 292 290 297 306 306 304 301 296 291 289 292 288 285 285 278 275 272 268 268 260 245 247 244 232 232 237 236 230 231 228 225
87 86 80 81 82 79 76 82 79 82 85 83 80 75 72 73 71 75 85 80 79 75 100 51 306 348 330 352 15 32 43 27 337 295 298 308 303 295 290 293 299 305 300 292 285 268 251 277 278 281 272 261 271 273 268 267 270 272 278 283 288 279 274 272 273 269 265 266 269 269 265 260 252 248 250 239 227 229 234 226 232 230 226 226 222
90 90 91 84 79 82 73 69 81 79 77 74 69 58 55 71 79 80 85 91 82 86 116 254 312 300 323 341 357 355 322 300 302 313 294 278 283 283 282 287 287 285 291 291 281 280 275 267 275 282 296 293 282 280 282 283 270 252 245 246 257 266 266 262 255 252 250 249 258 265 261 248 248 244 243 246 231 224 230 222 221 222 227 224 218
93 97 94 97 90 84 80 69 68 72 81 87 94 79 56 60 73 88 90 112 114 179 265 282 281 284 292 308 301 299 305 296 282 265 270 276 271 277 277 276 278 275 269 272 282 277 270 262 260 270 273 279 285 273 265 266 274 273 260 238 238 252 259 264 273 278 264 246 254 254 257 250 244 235 237 234 235 228 232 232 217 217 221 223 223
88 92 95 97 100 95 90 90 89 84 85 87 89 100 81 81 75 67 35 31 248 259 284 274 289 290 296 280 286 284 276 283 284 283 274 274 275 272 279 281 279 283 281 276 268 268 266 267 257 250 262 270 277 282 276 265 260 262 266 260 257 257 262 259 258 250 257 254 244 244 248 245 247 242 248 236 223 232 240 238 227 223 221 224 226
93 92 97 103 102 98 94 92 93 91 88 90 98 93 139 109 23 66 303 302 303 287 278 280 274 267 272 279 263 264 270 270 272 272 276 275 271 271 272 273 275 274 283 286 279 269 266 262 263 259 263 272 276 281 283 280 277 270 268 267 259 257 255 258 259 255 244 246 235 227 230 238 244 243 237 229 228 218 227 240 231 231 221 225 232
97 102 103 100 101 110 116 112 113 121 137 136 106 119 291 198 252 258 245 259 259 260 248 271 283 278 262 264 266 269 265 271 273 279 273 270 273 274 268 265 270 276 276 279 281 279 278 274 272 267 265 269 270 270 278 281 279 279 275 270 268 272 272 266 257 245 230 230 231 232 233 240 247 255 249 240 236 225 233 237 227 228 231 230 231
95 100 105 102 106 114 109 110 133 148 162 162 174 210 225 217 268 258 260 262 273 271 268 253 254 260 262 276 282 276 276 275 275 274 279 278 275 271 275 274 274 270 267 269 275 276 276 276 271 269 266 263 263 265 263 268 270 266 267 262 268 274 273 271 268 260 239 224 216 212 212 230 242 247 247 241 241 239 239 241 233 231 234 236 237
101 101 99 111 120 136 135 127 143 174 175 185 193 203 230 243 246 253 254 259 258 267 263 257 254 262 261 249 255 268 271 269 264 263 268 273 273 274 272 273 274 274 273 268 268 267 262 261 263 262 259 261 260 260 259 256 260 259 258 261 263 262 258 253 244 244 245 228 198 202 207 219 224 238 239 234 226 227 233 234 227 228 230 232 235